Location: Beaver Brook Station
(42.3793°N, 71.2203°W)
Time: 02:10:26
(UTC+00:00)

Okean O Rocket - Pass Details

Date: 29 October 2020
Orbit: 623 x 644 km, 98.2° (Epoch: 05 December)

Event Time Altitude Azimuth Distance (km) Brightness Sun altitude
Rises 22:12:56 0° 168° (SSE) 2,906 5.0 -6.5°
Reaches altitude 10° 22:15:07 10° 169° (S) 2,000 4.2 -6.8°
Maximum altitude 22:19:29 81° 256° (WSW) 640 1.7 -7.6°
Drops below altitude 10° 22:23:51 10° 345° (NNW) 2,007 4.2 -8.4°
Sets 22:26:03 0° 346° (NNW) 2,916 5.1 -8.8°
